Flag for China Weather past 2 weeks in Shanghai, Shanghai Municipality, China

Now
55 °F

Passing clouds.


Feels Like: 52 °F
Forecast: 37 / 43 °F
Wind: 15 mph from Northwest

Location: Shanghai Hongqiao Airport

Current Time: Mar 3, 2015 at 5:24:52 PM

Latest Report: Mar 3, 2015 at 5:00 PM


Visibility: 5 mi

Pressure: 30.01 "Hg

Humidity: 55%

Dew point: 39 °F

Location of ShanghaiLocation

Historic Weather in Shanghai — Graph

°F

Shanghai temperature yesterday

Maximum temperature yesterday: 54 °F (at 11:30 AM)
Minimum temperature yesterday: 37 °F (at 4:00 AM)
Average temperature yesterday: 46 °F

Past Weeks' High & Low Weather Summary

 TemperatureHumidityPressure
High59 °F (Feb 16, 4:00 PM)100% (Feb 21, 2:30 AM)30.42 "Hg (Feb 21, 2:30 AM)
Low34 °F (Feb 19, 4:00 AM)29% (Feb 17, 3:00 PM)29.92 "Hg (Feb 21, 3:00 AM)
Average46 °F76%30.17 "Hg
* Reported Feb 16 4:00 PM — Mar 3 4:00 PM, Shanghai, Weather by CustomWeather, © 2015

Note: Actual official high and low records may vary slightly from our data, if they occured in-between our weather recording intervals... More about our weather records

Advertising

Shanghai weather history for previous 24 hours

 ConditionsComfort  
Time TempWeatherWind HumidityBarometerVisibility
4:00 PM
Tue, Mar 3
55 °FClear.17 mph55%29.98 "Hg5 mi
3:30 PM57 °FClear.17 mph51%29.95 "Hg5 mi
3:00 PM57 °FPassing clouds.17 mph51%29.95 "Hg5 mi
2:30 PM57 °FPassing clouds.15 mph55%29.95 "Hg5 mi
2:00 PM55 °FPassing clouds.17 mph59%29.95 "Hg5 mi
1:30 PM57 °FScattered clouds.15 mph55%29.95 "Hg5 mi
1:00 PM57 °FPartly sunny.17 mph59%29.95 "Hg5 mi
12:30 PM57 °FPartly sunny.13 mph63%29.95 "Hg5 mi
12:00 PM55 °FScattered clouds.15 mph67%29.95 "Hg5 mi
11:30 AM55 °FClear.15 mph63%29.95 "Hg4 mi
11:00 AM55 °FClear.13 mph67%29.95 "Hg4 mi
10:30 AM55 °FFog.13 mph72%29.98 "Hg3 mi
10:00 AM54 °FFog.10 mph77%29.95 "Hg2 mi
9:30 AM52 °FFog.10 mph77%29.95 "Hg2 mi
9:00 AM50 °FFog.8 mph88%29.95 "Hg2 mi
8:30 AM48 °FFog.6 mph94%29.95 "Hg1 mi
8:00 AM48 °FFog.6 mph94%29.95 "Hg1 mi
7:30 AM46 °FFog.8 mph100%29.95 "Hg1 mi
7:00 AM46 °FFog.8 mph100%29.95 "Hg1 mi
6:30 AM46 °FFog.3 mph100%29.92 "Hg1 mi
6:00 AM46 °FFog.3 mph93%29.92 "Hg2 mi
5:30 AM46 °FFog.1 mph93%29.92 "Hg2 mi
5:00 AM46 °FFog.3 mph93%29.92 "Hg2 mi
4:30 AM46 °FLight rain. Fog.3 mph93%29.92 "Hg2 mi
4:00 AM46 °FFog.3 mph93%29.92 "Hg2 mi
3:30 AM46 °FLight rain. Fog.3 mph93%29.92 "Hg2 mi
3:00 AM46 °FLight rain. Fog.1 mph93%29.92 "Hg2 mi
2:30 AM46 °FLight rain. Fog.3 mph93%29.95 "Hg2 mi
2:00 AM46 °FLight rain. Fog.6 mph93%29.95 "Hg2 mi
1:30 AM46 °FLight rain. Fog.6 mph93%29.95 "Hg2 mi
1:00 AM46 °FLight rain. Fog.6 mph93%29.95 "Hg2 mi
12:30 AM46 °FLight rain. Fog.6 mph93%29.95 "Hg3 mi
12:00 AM46 °FLight rain. Fog.8 mph93%29.95 "Hg3 mi
11:30 PM
Mon, Mar 2
48 °FLight rain. Clear.8 mph82%29.95 "Hg4 mi
11:00 PM48 °FLight rain. Clear.8 mph82%29.95 "Hg4 mi
10:30 PM48 °FLight rain. Clear.10 mph82%29.95 "Hg4 mi
10:00 PM48 °FLight rain. Clear.10 mph76%29.95 "Hg4 mi
9:30 PM50 °FLight rain. Clear.10 mph67%29.95 "Hg5 mi
9:00 PM50 °FClear.13 mph67%29.95 "Hg5 mi
8:30 PM50 °FClear.13 mph67%29.95 "Hg4 mi
8:00 PM50 °FClear.10 mph67%29.95 "Hg4 mi
7:30 PM50 °FClear.13 mph67%29.95 "Hg4 mi
7:00 PM48 °FClear.10 mph71%29.95 "Hg4 mi
6:30 PM50 °FClear.13 mph67%29.95 "Hg4 mi
6:00 PM50 °FHaze.15 mph62%29.92 "Hg3 mi
5:30 PM50 °FHaze.10 mph62%29.95 "Hg3 mi
5:00 PM52 °FHaze.13 mph58%29.98 "Hg3 mi
Weather by CustomWeather, © 2015

See weather overviewHow to use our weather pages